Latest Weather Observations for Camooweal

IDD60801

Issued at 10:31 pm CST Wednesday 29 July 2015 (issued every 30 minutes, with the page automatically refreshed every 10 minutes)

About weather observations | Map of weather stations | Latest weather observations for NT | Other Formats
Station Details ID: 037010 Name: CAMOOWEAL TOWNSHIP Lat: -19.92 Lon: 138.12 Height: 231.2 m
Data from the previous 72 hours. | See also: Recent months at Camooweal
Date/Time
CST
Temp
°C
App
Temp
°C
Dew
Point
Rel
Hum
%
Delta-T
°C
Wind Press
QNH
hPa
Press
MSL
hPa
Rain
since 9 am
mm
Dir
 
Spd
km/h
Gust
km/h
Spd
kts
Gust
kts
29/10:30pm 17.6 13.2 -2.1 26 8.2 S 11 17 6 9 1022.3 1021.9 0.0
29/10:00pm 15.6 11.8 -0.6 33 6.8 SSW 9 13 5 7 1022.1 1021.7 0.0
29/09:30pm 16.8 13.0 -0.4 31 7.4 SSW 9 11 5 6 1022.1 1021.7 0.0
29/09:00pm 17.2 12.7 -0.5 30 7.6 SSW 13 17 7 9 1022.0 1021.6 0.0
29/08:30pm 18.9 15.2 0.0 28 8.3 S 9 13 5 7 1022.0 1021.6 0.0
29/08:00pm 20.6 16.3 1.0 27 9.0 S 13 15 7 8 1021.7 1021.3 0.0
29/07:30pm 21.4 17.3 2.2 28 9.0 S 13 15 7 8 1021.5 1021.1 0.0
29/07:00pm 21.3 17.2 2.1 28 9.0 S 13 13 7 7 1021.0 1020.6 0.0
29/06:30pm 22.3 18.4 1.3 25 9.8 S 11 13 6 7 1020.7 1020.2 0.0
29/06:00pm 24.6 21.1 1.5 22 11.0 S 9 11 5 6 1020.4 1019.9 0.0
29/05:30pm 26.7 22.4 1.2 19 12.2 S 13 17 7 9 1020.2 1019.7 0.0
29/05:00pm 27.4 23.2 1.8 19 12.5 SSE 13 20 7 11 - - 0.0
29/04:30pm 27.6 23.7 3.3 21 12.2 SE 13 19 7 10 - - 0.0
29/04:00pm 28.1 23.6 4.4 22 12.2 SSE 17 28 9 15 - - 0.0
29/03:30pm 27.8 23.5 3.5 21 12.2 SE 15 20 8 11 1020.3 1019.8 0.0
29/03:00pm 27.6 23.7 3.3 21 12.2 SSW 13 20 7 11 1020.6 1020.1 0.0
29/02:30pm 27.7 24.3 4.1 22 12.0 E 11 20 6 11 1021.1 1020.7 0.0
29/02:00pm 27.0 23.1 3.5 22 11.8 ESE 13 20 7 11 1021.5 1021.1 0.0
29/01:30pm 26.7 23.1 3.2 22 11.7 ESE 11 20 6 11 1022.1 1021.7 0.0
29/01:00pm 26.0 21.9 2.0 21 11.7 SE 13 22 7 12 1022.5 1022.1 0.0
29/12:30pm 24.5 20.1 0.1 20 11.3 SE 13 22 7 12 1023.3 1022.9 0.0
29/12:00pm 23.2 18.3 -0.3 21 10.7 SE 15 26 8 14 1024.1 1023.7 0.0
29/11:30am 21.8 16.3 -2.1 20 10.4 SE 17 24 9 13 1024.8 1024.4 0.0
29/11:00am 20.4 14.5 -2.6 21 9.8 SE 19 28 10 15 1025.4 1025.0 0.0
29/10:30am 19.4 13.3 -4.1 20 9.6 SSE 19 30 10 16 1025.7 1025.3 0.0
29/10:00am 17.2 10.8 -4.7 22 8.7 SSE 20 26 11 14 1026.0 1025.6 0.0
29/09:30am 15.8 9.0 -4.7 24 7.9 S 22 30 12 16 1026.0 1025.6 0.0
29/09:00am 14.4 7.6 -5.3 25 7.5 S 22 28 12 15 1025.9 1025.5 0.0
29/08:30am 13.1 6.3 -5.4 27 6.8 SSE 22 28 12 15 1025.7 1025.3 0.0
29/08:00am 12.2 5.0 -5.3 29 6.4 SSE 24 33 13 18 1025.5 1025.1 0.0
29/07:30am 11.1 4.7 -5.4 31 6.0 S 20 28 11 15 1025.2 1024.8 0.0
29/07:00am 10.2 3.9 -6.2 31 5.8 S 19 24 10 13 1024.8 1024.4 0.0
29/06:30am 9.9 3.0 -6.4 31 5.7 S 22 30 12 16 1024.5 1024.0 0.0
29/06:00am 9.6 3.2 -7.1 30 5.7 S 19 24 10 13 1024.3 1023.8 0.0
29/05:30am 9.0 2.9 -7.6 30 5.5 S 17 20 9 11 1023.9 1023.5 0.0
29/05:00am 8.9 2.8 -8.1 29 5.6 SSW 17 20 9 11 1023.7 1023.3 0.0
29/04:30am 8.9 3.1 -8.1 29 5.6 SSW 15 19 8 10 1023.5 1023.1 0.0
29/04:00am 8.8 3.8 -8.2 29 5.6 SSW 11 15 6 8 1023.4 1023.0 0.0
29/03:30am 9.4 4.5 -7.3 30 5.6 SSW 11 13 6 7 1023.4 1023.0 0.0
29/03:00am 10.2 5.6 -7.5 28 6.1 SSW 9 11 5 6 1023.5 1023.1 0.0
29/02:30am 12.2 6.8 -8.3 23 7.0 S 13 17 7 9 1023.5 1023.1 0.0
29/02:00am 14.9 8.8 -7.8 20 8.2 SSE 17 22 9 12 1023.6 1023.2 0.0
29/01:30am 15.2 8.7 -8.2 19 8.3 SSE 19 24 10 13 1023.8 1023.4 0.0
29/01:00am 15.8 9.1 -7.7 19 8.6 SSE 20 28 11 15 1023.9 1023.5 0.0
29/12:30am 14.9 9.3 -6.6 22 7.9 SSE 15 20 8 11 1024.0 1023.6 0.0
29/12:00am 15.2 9.7 -5.8 23 7.9 SSE 15 22 8 12 1024.3 1023.8 0.0
 
Date/Time
CST
Temp
°C
App
Temp
°C
Dew
Point
Rel
Hum
%
Delta-T
°C
Wind Press
QNH
hPa
Press
MSL
hPa
Rain
since 9 am
mm
Dir
 
Spd
km/h
Gust
km/h
Spd
kts
Gust
kts
28/11:30pm 15.6 9.3 -5.4 23 8.0 SSE 19 22 10 12 1024.5 1024.0 0.0
28/11:00pm 15.9 9.7 -4.6 24 8.0 SSE 19 26 10 14 1024.8 1024.4 0.0
28/10:30pm 16.4 10.1 -4.2 24 8.1 SSE 20 28 11 15 1024.8 1024.4 0.0
28/10:00pm 16.7 10.4 -3.9 24 8.2 SSE 20 24 11 13 1024.9 1024.5 0.0
28/09:30pm 17.2 11.5 -3.5 24 8.3 SSE 17 22 9 12 1024.8 1024.4 0.0
28/09:00pm 17.9 11.9 -2.9 24 8.6 SSE 19 22 10 12 1024.6 1024.1 0.0
28/08:30pm 18.4 12.5 -2.5 24 8.7 SSE 19 22 10 12 1024.6 1024.1 0.0
28/08:00pm 19.0 13.5 -2.0 24 8.9 S 17 22 9 12 1024.4 1023.9 0.0
28/07:30pm 19.8 14.7 -1.9 23 9.3 S 15 20 8 11 1024.0 1023.6 0.0
28/07:00pm 20.8 15.0 -1.7 22 9.8 S 19 22 10 12 1023.5 1023.1 0.0
28/06:30pm 21.5 15.8 -1.1 22 10.0 S 19 24 10 13 1023.2 1022.8 0.0
28/06:00pm 22.4 16.1 -1.0 21 10.5 SSE 22 32 12 17 1022.9 1022.5 0.0
28/05:30pm 23.3 16.2 -0.9 20 10.9 SSE 26 37 14 20 1022.7 1022.3 0.0
28/05:00pm 24.0 16.6 -1.0 19 11.3 SSE 28 35 15 19 1022.5 1022.1 0.0
28/04:30pm 24.5 16.7 -0.6 19 11.5 SSE 30 44 16 24 1022.3 1021.9 0.0
28/04:00pm 25.2 17.9 0.0 19 11.7 SSE 28 39 15 21 1022.5 1022.1 0.0
28/03:30pm 25.0 17.4 0.5 20 11.5 SSE 30 39 16 21 1022.5 1022.1 0.0
28/03:00pm 25.0 17.0 0.5 20 11.5 SSE 32 43 17 23 1022.5 1022.1 0.0
28/02:30pm 25.4 18.2 0.8 20 11.6 SSE 28 41 15 22 1022.9 1022.5 0.0
28/02:00pm 24.7 17.5 0.9 21 11.2 SSE 28 39 15 21 1023.3 1022.9 0.0
28/01:30pm 24.9 18.6 1.7 22 11.1 SSE 24 41 13 22 1023.8 1023.4 0.0
28/01:00pm 23.5 16.8 1.2 23 10.5 SSE 26 35 14 19 1024.4 1023.9 0.0
28/12:30pm 23.6 17.1 2.4 25 10.2 SSE 26 43 14 23 1024.8 1024.4 0.0
28/12:00pm 23.1 17.0 2.6 26 9.9 SSE 24 33 13 18 1025.4 1025.0 0.0
28/11:30am 21.3 13.9 2.1 28 9.0 SE 30 39 16 21 1025.9 1025.5 0.0
28/11:00am 20.8 14.3 2.6 30 8.6 SSE 26 39 14 21 1026.2 1025.8 0.0
28/10:30am 19.3 12.4 2.6 33 7.8 SSE 28 39 15 21 1026.2 1025.8 0.0
28/10:00am 18.0 11.1 2.7 36 7.1 SE 28 37 15 20 1026.5 1026.1 0.0
28/09:30am 17.1 10.2 2.7 38 6.6 SSE 28 35 15 19 1026.8 1026.4 0.0
28/09:00am 15.7 8.8 2.5 41 6.0 SSE 28 37 15 20 1026.6 1026.2 0.0
28/08:30am 14.2 8.1 2.5 45 5.2 SSE 24 32 13 17 1026.5 1026.1 0.0
28/08:00am 13.0 6.8 2.3 48 4.7 SSE 24 32 13 17 1026.3 1025.9 0.0
28/07:30am 12.1 6.7 2.6 52 4.2 S 20 30 11 16 1026.1 1025.7 0.0
28/07:00am 11.7 6.3 2.7 54 4.0 S 20 28 11 15 1026.0 1025.6 0.0
28/06:30am 12.0 6.7 3.0 54 4.0 S 20 30 11 16 1025.7 1025.3 0.0
28/06:00am 12.1 6.4 3.1 54 4.0 S 22 28 12 15 1025.6 1025.2 0.0
28/05:30am 12.4 6.4 3.4 54 4.0 S 24 30 13 16 1025.4 1025.0 0.0
28/05:00am 12.6 6.6 3.5 54 4.1 S 24 35 13 19 1025.1 1024.7 0.0
28/04:30am 12.9 6.9 3.6 53 4.2 S 24 32 13 17 1025.1 1024.7 0.0
28/04:00am 13.4 7.4 3.5 51 4.5 S 24 35 13 19 1025.1 1024.7 0.0
28/03:30am 13.9 7.9 3.4 49 4.8 S 24 33 13 18 1025.2 1024.8 0.0
28/03:00am 14.3 8.3 3.2 47 5.1 SSE 24 30 13 16 1025.4 1025.0 0.0
28/02:30am 14.3 8.2 2.9 46 5.1 S 24 32 13 17 1025.3 1024.9 0.0
28/02:00am 14.5 8.8 2.7 45 5.3 SSE 22 30 12 16 1025.5 1025.1 0.0
28/01:30am 14.8 8.7 2.7 44 5.4 SSE 24 32 13 17 1025.7 1025.3 0.0
28/01:00am 15.1 9.3 2.3 42 5.8 S 22 32 12 17 1026.0 1025.6 0.0
28/12:30am 16.1 10.3 2.5 40 6.2 S 22 30 12 16 1025.8 1025.4 0.0
28/12:00am 16.0 10.7 3.1 42 5.9 S 20 28 11 15 1025.9 1025.5 0.0
 
Date/Time
CST
Temp
°C
App
Temp
°C
Dew
Point
Rel
Hum
%
Delta-T
°C
Wind Press
QNH
hPa
Press
MSL
hPa
Rain
since 9 am
mm
Dir
 
Spd
km/h
Gust
km/h
Spd
kts
Gust
kts
27/11:30pm 16.3 11.3 3.4 42 6.0 S 19 26 10 14 1026.2 1025.8 0.0
27/11:00pm 16.4 11.1 2.8 40 6.2 S 20 28 11 15 1026.2 1025.8 0.0
27/10:30pm 16.8 12.3 2.0 37 6.7 SSE 15 19 8 10 1026.5 1026.1 0.0
27/10:00pm 17.9 11.7 2.2 35 7.2 SSE 24 32 13 17 1026.0 1025.6 0.0
27/09:30pm 18.2 12.7 2.1 34 7.4 SSE 20 28 11 15 1026.1 1025.7 0.0
27/09:00pm 18.4 12.9 1.9 33 7.6 SSE 20 28 11 15 1026.1 1025.7 0.0
27/08:30pm 18.7 12.5 2.1 33 7.6 SSE 24 33 13 18 1026.2 1025.8 0.0
27/08:00pm 18.8 12.5 1.8 32 7.8 SSE 24 32 13 17 1026.1 1025.7 0.0
27/07:30pm 19.1 12.9 2.0 32 7.9 SSE 24 32 13 17 1025.7 1025.3 0.0
27/07:00pm 19.3 12.2 1.3 30 8.2 SSE 28 35 15 19 1025.4 1025.0 0.0
27/06:30pm 19.7 12.6 1.2 29 8.4 SSE 28 39 15 21 1025.1 1024.7 0.0
27/06:00pm 19.9 11.9 0.4 27 8.8 SSE 32 44 17 24 1024.7 1024.2 0.0
27/05:30pm 20.6 12.4 0.4 26 9.1 S 33 44 18 24 1024.4 1023.9 0.0
27/05:00pm 21.1 12.7 1.4 27 9.1 SSE 35 52 19 28 1024.1 1023.7 0.0
27/04:30pm 21.0 13.6 1.8 28 8.9 SSE 30 44 16 24 1023.9 1023.5 0.0
27/04:00pm 21.4 14.1 2.2 28 9.1 SSE 30 41 16 22 1024.0 1023.6 0.0
27/03:30pm 21.7 13.4 2.4 28 9.1 S 35 48 19 26 1023.7 1023.3 0.0
27/03:00pm 22.8 14.5 2.3 26 9.8 SSE 35 44 19 24 1023.8 1023.4 0.0
27/02:30pm 22.5 14.6 2.1 26 9.6 S 33 44 18 24 1023.7 1023.3 0.0
27/02:00pm 22.0 14.2 2.7 28 9.2 SSE 33 46 18 25 1024.0 1023.6 0.0
27/01:30pm 22.5 14.7 2.6 27 9.5 SSE 33 44 18 24 1024.3 1023.8 0.0
27/01:00pm 22.3 14.3 1.9 26 9.6 SSE 33 48 18 26 1024.7 1024.2 0.0
27/12:30pm 22.6 14.9 2.1 26 9.7 SSE 32 46 17 25 1025.5 1025.1 0.0
27/12:10pm 21.7 13.9 1.4 26 9.5 S 32 50 17 27 1025.7 1025.3 0.0
27/12:00pm 22.0 14.2 1.6 26 9.6 SSE 32 44 17 24 1026.0 1025.6 0.0
27/11:30am 21.8 13.5 2.0 27 9.3 SSE 35 46 19 25 1026.0 1025.6 0.0
27/11:00am 21.9 14.6 2.6 28 9.2 SE 30 48 16 26 1026.5 1026.1 0.0
27/10:58am 21.6 13.9 2.3 28 9.1 SE 32 50 17 27 1026.5 1026.1 0.0
27/10:30am 20.8 12.5 2.1 29 8.7 SSE 35 46 19 25 1026.8 1026.4 0.0
27/10:00am 20.3 12.7 2.6 31 8.4 SSE 32 43 17 23 1027.0 1026.6 0.0
27/09:30am 20.0 11.5 3.3 33 7.9 SE 37 48 20 26 1027.1 1026.7 0.0
27/09:00am 18.6 11.8 3.3 36 7.2 SSE 28 43 15 23 1027.1 1026.7 0.0
27/08:30am 17.5 11.3 4.1 41 6.3 SSE 26 35 14 19 1026.8 1026.4 0.0
27/08:00am 16.6 10.1 4.6 45 5.7 S 28 41 15 22 1026.6 1026.2 0.0
27/07:30am 16.1 9.6 4.8 47 5.4 SSE 28 35 15 19 1026.1 1025.7 0.0
27/07:00am 15.7 9.6 5.0 49 5.1 SSE 26 35 14 19 1025.8 1025.4 0.0
27/06:30am 15.7 9.7 5.3 50 5.0 SSE 26 35 14 19 1025.5 1025.1 0.0
27/06:00am 15.9 9.9 5.5 50 5.0 S 26 33 14 18 1025.1 1024.7 0.0
27/05:30am 16.3 10.8 5.9 50 5.1 SSE 24 35 13 19 1024.7 1024.2 0.0
27/05:00am 16.7 11.6 5.9 49 5.3 SSE 22 33 12 18 1024.3 1023.8 0.0
27/04:30am 17.0 11.5 5.9 48 5.4 SSE 24 32 13 17 1024.0 1023.6 0.0
27/04:00am 17.1 12.0 6.0 48 5.5 SSE 22 32 12 17 1023.8 1023.4 0.0
27/03:30am 17.3 11.8 5.9 47 5.6 S 24 35 13 19 1023.7 1023.3 0.0
27/03:00am 17.4 11.9 5.7 46 5.7 S 24 33 13 18 1023.7 1023.3 0.0
27/02:30am 17.5 11.8 5.1 44 6.0 S 24 33 13 18 1023.9 1023.5 0.0
27/02:00am 17.8 12.4 4.7 42 6.3 S 22 30 12 16 1024.1 1023.7 0.0
27/01:30am 18.1 13.0 3.9 39 6.7 S 20 28 11 15 1024.3 1023.8 0.0
27/01:00am 18.3 13.3 3.4 37 7.0 S 19 26 10 14 1024.1 1023.7 0.0
27/12:30am 19.4 14.0 2.7 33 7.8 S 20 28 11 15 1024.0 1023.6 0.0
27/12:00am 19.7 14.3 2.6 32 8.0 S 20 30 11 16 1024.0 1023.6 0.0
 
Date/Time
CST
Temp
°C
App
Temp
°C
Dew
Point
Rel
Hum
%
Delta-T
°C
Wind Press
QNH
hPa
Press
MSL
hPa
Rain
since 9 am
mm
Dir
 
Spd
km/h
Gust
km/h
Spd
kts
Gust
kts
26/11:30pm 20.0 14.2 2.4 31 8.2 SSE 22 28 12 15 1024.0 1023.6 0.0
26/11:00pm 20.3 14.9 2.2 30 8.5 S 20 30 11 16 1024.1 1023.7 0.0
26/10:30pm 20.7 14.9 2.5 30 8.6 SSE 22 30 12 16 1024.0 1023.6 0.0

Other Formats:

Comma delimited format used in spreadsheet applications
http://www.bom.gov.au/fwo/IDD60801/IDD60801.94255.axf

JavaScript Object Notation format (JSON) in row-major order
http://www.bom.gov.au/fwo/IDD60801/IDD60801.94255.json